Flag for Brazil Weather past 2 weeks in Montes Claros, Minas Gerais, Brazil

Now
73 °F

Scattered clouds.


Feels Like: 76 °F
Forecast: 77 / 102 °F
Wind: 8 mph from Southeast

Location: Belo Horizonte Airport

Current Time: Oct 20, 2014 at 8:25:45 AM

Latest Report: Oct 20, 2014 at 8:00 AM


Visibility: N/A

Pressure: 30.04 "Hg

Humidity: 65%

Dew point: 61 °F

Location of Montes ClarosLocation

Historic Weather in Montes Claros — Graph

°F

Montes Claros temperature yesterday

Maximum temperature yesterday: 97 °F (at 4:00 PM)
Minimum temperature yesterday: 73 °F (at 5:00 AM)
Average temperature yesterday: 83 °F

Past Weeks' High & Low Weather Summary

 TemperatureHumidityPressure
High97 °F (Oct 14, 3:00 PM)77% (Oct 7, 5:00 AM)30.33 "Hg (Oct 7, 5:00 AM)
Low54 °F (Oct 5, 6:00 AM)11% (Oct 11, 4:00 PM)29.92 "Hg (Oct 18, 3:00 PM)
Average76 °F40%30.11 "Hg
* Reported Oct 5 6:00 AM — Oct 20 7:00 AM, Montes Claros, Weather by CustomWeather, © 2014

Note: Actual official high and low records may vary slightly from our data, if they occured in-between our weather recording intervals... More about our weather records

Advertising

Montes Claros weather history for previous 24 hours

 ConditionsComfort  
Time TempWeatherWind HumidityBarometerVisibility
7:00 AM
Oct 20
72 °FPassing clouds.15 mph69%30.04 "HgN/A
6:00 AM72 °FClear.15 mph69%30.04 "Hg10 mi
5:00 AM75 °FClear.13 mph57%30.01 "Hg10 mi
4:00 AM75 °FClear.6 mph57%29.98 "Hg10 mi
3:00 AM79 °FClear.2 mph48%29.95 "Hg10 mi
1:00 AM81 °FClear.7 mph45%29.98 "Hg10 mi
12:00 AM82 °FClear.8 mph40%29.98 "Hg10 mi
11:00 PM
Oct 19
82 °FClear.2 mph37%30.01 "Hg10 mi
10:00 PM84 °FClear.2 mph33%29.98 "Hg10 mi
9:00 PM84 °FClear.6 mph33%29.95 "Hg10 mi
8:00 PM88 °FPassing clouds.6 mph29%29.95 "HgN/A
7:00 PM88 °FScattered clouds.5 mph27%29.95 "HgN/A
6:00 PM88 °FScattered clouds.9 mph29%29.92 "HgN/A
5:00 PM82 °FLight rain. Scattered clouds.17 mph42%29.92 "Hg4 mi
4:00 PM97 °FPassing clouds.9 mph18%29.92 "HgN/A
3:00 PM95 °FPassing clouds.6 mph19%29.95 "HgN/A
2:00 PM95 °FPassing clouds.6 mph20%29.98 "HgN/A
1:00 PM91 °FSunny.6 mph24%30.01 "Hg10 mi
12:00 PM90 °FSunny.6 mph26%30.04 "Hg10 mi
11:00 AM88 °FSunny.3 mph29%30.07 "Hg10 mi
10:00 AM84 °FSunny.6 mph33%30.07 "Hg10 mi
9:00 AM82 °FSunny.7 mph35%30.07 "Hg10 mi
8:00 AM73 °FSunny.2 mph57%30.04 "Hg10 mi
Weather by CustomWeather, © 2014

See weather overviewHow to use our weather pages